sat.trackr.live / text

‹ back to catalog

STARLINK-35184

NORAD 65506 · 2025-198Q

PAYLOAD ACTIVE UNKNOWN

§ Identity

Operator
Country
US
Launch date
2025-09-05
Launch site
AFETR
Launch vehicle
Mass (kg)
RCS (m²)

Purposes: comms

External: N2YO · Heavens-Above · Gunter

§ Orbital elements

Epoch: 2026-09-20T22:16:20.839008Z

Period
93.85 min
Inclination
53.1574°
Eccentricity
0.0000765
Mean motion
15.34427958 rev/d
Perigee alt
462.1 km
Apogee alt
463.1 km
Semi-major
6,840.8 km
B*
6.6925e-4
RAAN
79.7602°
Arg perigee
89.9952°
Mean anomaly
270.1139°
Rev number
5,857

§ Raw data

STARLINK-351841 65506U 25198Q   26263.92801897  .00022323  00000+0  66925-3 0  99922 65506  53.1574  79.7602 0000765  89.9952 270.1139 15.34427958 58576

JSON: /api/v1/satellites/65506 · /tle

For live sub-satellite position, see the globe view (requires WebGL).

§ Visibility from observer

Set your observer location to see the next 7 days of passes ≥ 10°. The values pass through the URL so the page stays shareable.

No JS? Fill the form by hand. The geolocation button needs JavaScript.